Weather History for Roanoke Rapids, NC

Change the Weather History Date:

Thursday, February 14, 2013

  Actual Average (KEMV) Record (KEMV)
Temperature  
Mean Temperature 42 °F -  
Max Temperature 50 °F 50 °F 72 °F (1984)
Min Temperature 33 °F 27 °F 13 °F (1986)
Degree Days  
Heating Degree Days 24    
Moisture  
Dew Point 37 °F    
Average Humidity 84    
Maximum Humidity 100    
Minimum Humidity 58    
Precipitation  
Precipitation 0.00 in - - ()
Sea Level Pressure  
Sea Level Pressure 29.99 in    
Wind  
Wind Speed 4 mph (SW)    
Max Wind Speed 12 mph    
Max Gust Speed 20 mph    
Visibility 8 miles    
Events Fog    
Averages and records for this station are not official NWS values.
T = Trace of Precipitation, MM = Missing Value Source: NWS Daily Summary

Daily Weather History Graph

Daily Weather History Graph

Search for Another Location

Airport:

Trip Planner

Search our weather history database for the weather conditions in past years. The results will help you decide how hot, cold, wet, or windy it might be!

Date:

Astronomy

Feb. 14, 2013 Rise Set
Actual Time 6:59 AM EST 5:50 PM EST
Civil Twilight 6:32 AM EST 6:17 PM EST
Nautical Twilight 6:02 AM EST 6:47 PM EST
Astronomical Twilight 5:32 AM EST 7:17 PM EST
Moon 9:09 AM EST (2/14) 10:40 PM EST (2/14)
Length of Visible Light 11h 44m
Length of Day
10h 51m
Waxing Crescent, 21% of the Moon is Illuminated
Feb 14
Waxing Crescent
Feb 17
First Quarter
Feb 25
Full
Mar 4
Last Quarter
Mar 11
New

Hourly Weather History & Observations

Time (EST) Temp. Windchill Dew Point Humidity Pressure Visibility Wind Dir Wind Speed Gust Speed Precip Events Conditions
12:15 AM 44.6 °F 38.8 °F 39.2 °F 81% 29.79 in 10.0 mi NW 11.5 mph 19.6 mph N/A   Scattered Clouds
12:35 AM 42.8 °F 37.0 °F 37.4 °F 81% 29.81 in 10.0 mi NW 10.4 mph - N/A   Clear
12:55 AM 42.8 °F 38.6 °F 37.4 °F 81% 29.82 in 10.0 mi NW 6.9 mph - N/A   Clear
1:15 AM 41.0 °F 36.4 °F 37.4 °F 87% 29.83 in 10.0 mi NW 6.9 mph - N/A   Clear
1:35 AM 41.0 °F 37.1 °F 37.4 °F 87% 29.84 in 10.0 mi NW 5.8 mph - N/A   Clear
2:15 AM 41.0 °F 38.0 °F 37.4 °F 87% 29.85 in 10.0 mi NNW 4.6 mph - N/A   Clear
2:35 AM 39.2 °F 37.0 °F 37.4 °F 93% 29.86 in 10.0 mi NNW 3.5 mph - N/A   Clear
2:55 AM 39.2 °F 35.9 °F 37.4 °F 93% 29.86 in 10.0 mi NW 4.6 mph - N/A   Clear
3:15 AM 39.2 °F 37.0 °F 37.4 °F 93% 29.87 in 10.0 mi WNW 3.5 mph - N/A   Clear
3:35 AM 37.4 °F - 35.6 °F 93% 29.88 in 10.0 mi Calm Calm - N/A   Clear
3:55 AM 35.6 °F - 33.8 °F 93% 29.90 in 7.0 mi Calm Calm - N/A   Clear
4:15 AM 35.6 °F - 35.6 °F 100% 29.91 in 7.0 mi Calm Calm - N/A   Clear
4:35 AM 33.8 °F 30.8 °F 33.8 °F 100% 29.91 in 0.8 mi North 3.5 mph - N/A   Mostly Cloudy
4:55 AM 35.6 °F - 35.6 °F 100% 29.92 in 7.0 mi Calm Calm - N/A   Mostly Cloudy
5:15 AM 35.6 °F - 35.6 °F 100% 29.93 in 5.0 mi Calm Calm - N/A   Overcast
5:35 AM 35.6 °F - 35.6 °F 100% 29.94 in 4.0 mi Calm Calm - N/A   Overcast
6:15 AM 35.6 °F - 35.6 °F 100% 29.95 in 0.2 mi Calm Calm - N/A Fog Fog
6:35 AM 35.6 °F - 35.6 °F 100% 29.96 in 0.2 mi Calm Calm - N/A Fog Fog
6:55 AM 35.6 °F - 35.6 °F 100% 29.97 in 0.2 mi Calm Calm - N/A Fog Fog
7:15 AM 35.6 °F - 35.6 °F 100% 29.98 in 0.2 mi Calm Calm - N/A Fog Fog
7:35 AM 33.8 °F 30.8 °F 33.8 °F 100% 29.99 in 0.2 mi SW 3.5 mph - N/A Fog Fog
7:55 AM 33.8 °F 30.8 °F 33.8 °F 100% 30.00 in 0.2 mi SW 3.5 mph - N/A Fog Fog
8:15 AM 35.6 °F 32.8 °F 35.6 °F 100% 30.01 in 0.2 mi WSW 3.5 mph - N/A Fog Fog
8:35 AM 35.6 °F 32.8 °F 35.6 °F 100% 30.02 in 0.2 mi SW 3.5 mph - N/A Fog Fog
8:55 AM 35.6 °F - 35.6 °F 100% 30.03 in 0.2 mi Calm Calm - N/A Fog Fog
9:15 AM 37.4 °F 33.8 °F 37.4 °F 100% 30.05 in 0.2 mi WSW 4.6 mph - N/A Fog Fog
9:35 AM 39.2 °F 35.9 °F 39.2 °F 100% 30.05 in 0.5 mi West 4.6 mph - N/A Fog Fog
9:55 AM 41.0 °F - 41.0 °F 100% 30.05 in 7.0 mi Calm Calm - N/A   Scattered Clouds
10:15 AM 41.0 °F 39.0 °F 41.0 °F 100% 30.05 in 10.0 mi WNW 3.5 mph - N/A   Scattered Clouds
10:35 AM 42.8 °F 41.1 °F 41.0 °F 93% 30.03 in 10.0 mi NE 3.5 mph - N/A   Scattered Clouds
11:15 AM 44.6 °F - 35.6 °F 71% 30.05 in 10.0 mi Calm Calm - N/A   Overcast
11:35 AM 44.6 °F - 35.6 °F 71% 30.05 in 10.0 mi Calm Calm - N/A   Overcast
12:15 PM 46.4 °F - 37.4 °F 71% 30.03 in 10.0 mi Calm Calm - N/A   Overcast
12:35 PM 48.2 °F - 37.4 °F 66% 30.03 in 10.0 mi Calm Calm - N/A   Overcast
12:55 PM 46.4 °F 45.2 °F 37.4 °F 71% 30.03 in 10.0 mi WSW 3.5 mph - N/A   Overcast
1:15 PM 46.4 °F 45.2 °F 35.6 °F 66% 30.02 in 10.0 mi SSE 3.5 mph - N/A   Overcast
1:35 PM 48.2 °F - 35.6 °F 62% 30.02 in 10.0 mi SW 4.6 mph - N/A   Mostly Cloudy
1:55 PM 50.0 °F - 37.4 °F 62% 30.01 in 10.0 mi SW 4.6 mph - N/A   Scattered Clouds
2:15 PM 50.0 °F - 37.4 °F 62% 30.01 in 10.0 mi SW 6.9 mph - N/A   Scattered Clouds
2:35 PM 50.0 °F - 37.4 °F 62% 30.00 in 10.0 mi South 5.8 mph - N/A   Mostly Cloudy
3:15 PM 50.0 °F - 35.6 °F 58% 30.00 in 10.0 mi SSE 5.8 mph - N/A   Scattered Clouds
3:35 PM 50.0 °F - 35.6 °F 58% 30.01 in 10.0 mi South 5.8 mph - N/A   Scattered Clouds
3:55 PM 50.0 °F - 35.6 °F 58% 30.00 in 10.0 mi South 3.5 mph - N/A   Scattered Clouds
4:15 PM 50.0 °F - 37.4 °F 62% 30.01 in 10.0 mi SSW 6.9 mph - N/A   Clear
4:35 PM 48.2 °F - 37.4 °F 66% 30.00 in 10.0 mi SSW 5.8 mph - N/A   Clear
4:55 PM 48.2 °F - 37.4 °F 66% 30.00 in 10.0 mi SSE 3.5 mph - N/A   Clear
5:15 PM 46.4 °F 45.2 °F 37.4 °F 71% 30.01 in 10.0 mi SSE 3.5 mph - N/A   Clear
5:35 PM 46.4 °F 44.3 °F 37.4 °F 71% 30.00 in 10.0 mi South 4.6 mph - N/A   Clear
5:55 PM 46.4 °F - 37.4 °F 71% 30.01 in 10.0 mi Calm Calm - N/A   Clear
6:15 PM 44.6 °F 43.1 °F 37.4 °F 76% 30.01 in 10.0 mi South 3.5 mph - N/A   Clear
6:35 PM 44.6 °F - 37.4 °F 76% 30.02 in 10.0 mi Calm Calm - N/A   Clear
6:55 PM 42.8 °F 41.1 °F 37.4 °F 81% 30.02 in 10.0 mi South 3.5 mph - N/A   Clear
7:15 PM 42.8 °F 41.1 °F 37.4 °F 81% 30.01 in 10.0 mi SSE 3.5 mph - N/A   Clear
7:35 PM 42.8 °F - 37.4 °F 81% 30.03 in 10.0 mi Calm Calm - N/A   Clear
7:55 PM 39.2 °F - 35.6 °F 87% 30.03 in 10.0 mi Calm Calm - N/A   Clear
8:15 PM 41.0 °F - 37.4 °F 87% 30.04 in 10.0 mi Calm Calm - N/A   Clear
8:35 PM 41.0 °F 39.0 °F 35.6 °F 81% 30.04 in 10.0 mi SSE 3.5 mph - N/A   Clear
8:55 PM 41.0 °F 38.0 °F 35.6 °F 81% 30.05 in 10.0 mi South 4.6 mph - N/A   Clear
9:15 PM 42.8 °F 39.3 °F 37.4 °F 81% 30.06 in 10.0 mi South 5.8 mph - N/A   Clear
9:35 PM 41.0 °F - 35.6 °F 81% 30.05 in 10.0 mi Calm Calm - N/A   Clear
9:55 PM 39.2 °F 37.0 °F 35.6 °F 87% 30.06 in 10.0 mi SSE 3.5 mph - N/A   Clear
10:15 PM 39.2 °F - 35.6 °F 87% 30.07 in 10.0 mi Calm Calm - N/A   Clear
10:35 PM 37.4 °F - 37.4 °F 100% 30.07 in 10.0 mi Calm Calm - N/A   Clear
10:55 PM 35.6 °F 32.8 °F 35.6 °F 100% 30.07 in 10.0 mi SSW 3.5 mph - N/A   Clear
11:15 PM 37.4 °F - 35.6 °F 93% 30.07 in 10.0 mi Calm Calm - N/A   Clear
11:35 PM 35.6 °F - 35.6 °F 100% 30.06 in 7.0 mi Calm Calm - N/A   Clear